Location: Baili�vre
(50.0696°N, 4.2409°E)
Time: 08:25:14
(UTC+00:00)

Cosmos 2084 Rocket - Pass Details

Date: 08 August 2020
Orbit: 549 x 632 km, 62.8° (Epoch: 26 September)

Event Time Altitude Azimuth Distance (km) Brightness Sun altitude
Exits shadow 23:35:24 37° 274° (W) 898 4.4 -24.1°
Maximum altitude 23:36:36 49° 321° (NW) 750 4.2 -24.1°
Drops below altitude 10° 23:40:49 10° 38° (NE) 1,923 6.7 -24.1°
Sets 23:43:10 0° 44° (NE) 2,842 7.6 -24.1°
